N312YH KLAX-KSAN

Flight info

Callsign N312YH
Flight time 0h 33m
Altitude 13000
Route SUMMR2 RIZIN LAX COMIX2
Aircraft C25C/M-SDE2E3FGHRWXY/LB1

Departure

Time 2026-05-04 03:27
Airport Los Angeles International Airport (KLAX)

Arrival

Time 2026-05-04 04:00
Airport San Diego International Airport (KSAN)
Time Latitude Longitude Altitude Speed Heading
2026-05-04 03:12 33.93379 -118.39470 119 ft 0 kts 89°
2026-05-04 03:22 33.93380 -118.39459 119 ft 5 kts 75°
2026-05-04 03:22 33.93405 -118.39422 119 ft 5 kts 39°
2026-05-04 03:22 33.93418 -118.39411 119 ft 0 kts 32°
2026-05-04 03:23 33.93436 -118.39389 117 ft 6 kts 33°
2026-05-04 03:24 33.93488 -118.39381 119 ft 12 kts 27°
2026-05-04 03:24 33.93510 -118.39285 117 ft 13 kts 82°
2026-05-04 03:24 33.93524 -118.39149 117 ft 20 kts 83°
2026-05-04 03:24 33.93543 -118.38960 119 ft 25 kts 83°
2026-05-04 03:25 33.93565 -118.38751 119 ft 25 kts 83°
2026-05-04 03:25 33.93585 -118.38562 119 ft 20 kts 82°
2026-05-04 03:25 33.93601 -118.38398 119 ft 8 kts 84°
2026-05-04 03:25 33.93606 -118.38348 119 ft 0 kts 83°
2026-05-04 03:26 33.93609 -118.38319 116 ft 11 kts 77°
2026-05-04 03:26 33.93699 -118.38286 119 ft 16 kts 338°
2026-05-04 03:27 33.93723 -118.38424 116 ft 31 kts 263°
2026-05-04 03:27 33.93655 -118.39090 208 ft 125 kts 264°
2026-05-04 03:27 33.93533 -118.40337 1007 ft 166 kts 264°
2026-05-04 03:27 33.93466 -118.41764 2041 ft 176 kts 268°
2026-05-04 03:28 33.93433 -118.43281 2937 ft 192 kts 268°
2026-05-04 03:28 33.93206 -118.45064 3008 ft 239 kts 247°
2026-05-04 03:28 33.92189 -118.46610 3830 ft 233 kts 232°
2026-05-04 03:28 33.91181 -118.48190 4119 ft 242 kts 227°
2026-05-04 03:29 33.89699 -118.49161 4508 ft 245 kts 202°
2026-05-04 03:29 33.88089 -118.49904 4770 ft 252 kts 202°
2026-05-04 03:29 33.86438 -118.50630 5099 ft 253 kts 201°
2026-05-04 03:29 33.84798 -118.51333 5403 ft 254 kts 201°
2026-05-04 03:30 33.83117 -118.52035 5689 ft 256 kts 201°
2026-05-04 03:30 33.81443 -118.52726 6080 ft 252 kts 201°
2026-05-04 03:30 33.79803 -118.53398 6545 ft 250 kts 201°
2026-05-04 03:30 33.78187 -118.54055 7156 ft 237 kts 201°
2026-05-04 03:31 33.76650 -118.54679 7753 ft 232 kts 201°
2026-05-04 03:31 33.75117 -118.55307 8185 ft 234 kts 201°
2026-05-04 03:31 33.73575 -118.55924 8622 ft 235 kts 197°
2026-05-04 03:31 33.71943 -118.55709 9030 ft 245 kts 161°
2026-05-04 03:32 33.70495 -118.54612 9452 ft 253 kts 137°
2026-05-04 03:32 33.69479 -118.52868 9868 ft 255 kts 128°
2026-05-04 03:32 33.68783 -118.50889 10187 ft 264 kts 105°
2026-05-04 03:32 33.68467 -118.48707 10538 ft 265 kts 102°
2026-05-04 03:33 33.68194 -118.46510 10864 ft 267 kts 102°
2026-05-04 03:33 33.67931 -118.44295 11175 ft 269 kts 101°
2026-05-04 03:33 33.67661 -118.42073 11476 ft 269 kts 105°
2026-05-04 03:33 33.66849 -118.40142 11746 ft 261 kts 133°
2026-05-04 03:34 33.66050 -118.39033 11961 ft 260 kts 136°
2026-05-04 03:34 33.64547 -118.36775 12344 ft 263 kts 131°
2026-05-04 03:34 33.63509 -118.34952 12625 ft 265 kts 129°
2026-05-04 03:34 33.62473 -118.33108 12886 ft 267 kts 129°
2026-05-04 03:35 33.61401 -118.31249 12967 ft 274 kts 130°
2026-05-04 03:35 33.60665 -118.29996 12991 ft 279 kts 130°
2026-05-04 03:35 33.59541 -118.28062 13007 ft 285 kts 130°
2026-05-04 03:35 33.58399 -118.26092 13019 ft 289 kts 129°
2026-05-04 03:36 33.57189 -118.24015 13004 ft 317 kts 130°
2026-05-04 03:36 33.55881 -118.21765 12999 ft 338 kts 129°
2026-05-04 03:36 33.54532 -118.19433 13001 ft 342 kts 129°
2026-05-04 03:36 33.53176 -118.17087 13004 ft 343 kts 129°
2026-05-04 03:37 33.51806 -118.14743 13002 ft 344 kts 129°
2026-05-04 03:37 33.50438 -118.12391 13003 ft 345 kts 129°
2026-05-04 03:37 33.49061 -118.10032 12987 ft 345 kts 129°
2026-05-04 03:37 33.47707 -118.07701 12987 ft 346 kts 129°
2026-05-04 03:38 33.46328 -118.05344 12987 ft 346 kts 129°
2026-05-04 03:38 33.44943 -118.02966 12994 ft 346 kts 129°
2026-05-04 03:38 33.43562 -118.00606 12992 ft 347 kts 129°
2026-05-04 03:38 33.42179 -117.98236 12986 ft 347 kts 129°
2026-05-04 03:39 33.40795 -117.95871 12989 ft 347 kts 129°
2026-05-04 03:39 33.39409 -117.93504 12996 ft 347 kts 129°
2026-05-04 03:39 33.38024 -117.91136 12993 ft 347 kts 129°
2026-05-04 03:39 33.36635 -117.88770 12993 ft 347 kts 129°
2026-05-04 03:40 33.35250 -117.86402 12994 ft 348 kts 129°
2026-05-04 03:40 33.33854 -117.84031 12996 ft 355 kts 129°
2026-05-04 03:40 33.32414 -117.81578 12998 ft 357 kts 129°
2026-05-04 03:40 33.30983 -117.79139 12999 ft 360 kts 129°
2026-05-04 03:41 33.29525 -117.76657 13000 ft 368 kts 129°
2026-05-04 03:41 33.28040 -117.74138 13001 ft 372 kts 129°
2026-05-04 03:41 33.26544 -117.71594 13007 ft 375 kts 129°
2026-05-04 03:41 33.25039 -117.69038 13006 ft 376 kts 129°
2026-05-04 03:42 33.23581 -117.66559 13007 ft 363 kts 129°
2026-05-04 03:42 33.22153 -117.64131 13002 ft 352 kts 129°
2026-05-04 03:42 33.20735 -117.61739 12998 ft 344 kts 130°
2026-05-04 03:42 33.19368 -117.59422 12994 ft 338 kts 130°
2026-05-04 03:43 33.18099 -117.57266 12937 ft 306 kts 130°
2026-05-04 03:43 33.16905 -117.55242 12576 ft 292 kts 131°
2026-05-04 03:43 33.15750 -117.53301 12210 ft 283 kts 130°
2026-05-04 03:43 33.14623 -117.51404 11843 ft 278 kts 130°
2026-05-04 03:44 33.13517 -117.49536 11473 ft 274 kts 130°
2026-05-04 03:44 33.12409 -117.47668 11107 ft 282 kts 130°
2026-05-04 03:44 33.11245 -117.45718 10757 ft 295 kts 130°
2026-05-04 03:44 33.10043 -117.43684 10374 ft 304 kts 129°
2026-05-04 03:45 33.08807 -117.41603 9964 ft 310 kts 129°
2026-05-04 03:45 33.07560 -117.39494 9508 ft 313 kts 129°
2026-05-04 03:45 33.06293 -117.37366 9059 ft 315 kts 129°
2026-05-04 03:45 33.05062 -117.35289 8605 ft 307 kts 129°
2026-05-04 03:46 33.03662 -117.33459 8134 ft 294 kts 148°
2026-05-04 03:46 33.01889 -117.32433 7997 ft 274 kts 162°
2026-05-04 03:46 33.00143 -117.31661 7983 ft 260 kts 165°
2026-05-04 03:46 32.98433 -117.30988 7975 ft 260 kts 166°
2026-05-04 03:47 32.96710 -117.30283 7971 ft 263 kts 165°
2026-05-04 03:47 32.94985 -117.29554 7980 ft 263 kts 164°
2026-05-04 03:47 32.93277 -117.28835 7984 ft 265 kts 165°
2026-05-04 03:47 32.91520 -117.28099 7788 ft 274 kts 165°
2026-05-04 03:48 32.89733 -117.27356 7396 ft 268 kts 164°
2026-05-04 03:48 32.87988 -117.26618 6963 ft 264 kts 164°
2026-05-04 03:48 32.86282 -117.25828 6519 ft 265 kts 154°
2026-05-04 03:48 32.85098 -117.24207 6065 ft 260 kts 115°
2026-05-04 03:49 32.84672 -117.22221 5995 ft 239 kts 103°
2026-05-04 03:49 32.84362 -117.20280 5984 ft 239 kts 101°
2026-05-04 03:49 32.84067 -117.18322 5981 ft 241 kts 101°
2026-05-04 03:49 32.83776 -117.16360 5985 ft 242 kts 101°
2026-05-04 03:50 32.83457 -117.14398 5984 ft 242 kts 104°
2026-05-04 03:50 32.83034 -117.12433 5716 ft 246 kts 105°
2026-05-04 03:50 32.82595 -117.10491 5336 ft 241 kts 106°
2026-05-04 03:50 32.82166 -117.08593 5076 ft 232 kts 106°
2026-05-04 03:51 32.81742 -117.06754 4999 ft 230 kts 105°
2026-05-04 03:51 32.81313 -117.04888 5009 ft 238 kts 106°
2026-05-04 03:51 32.80880 -117.02985 5009 ft 238 kts 105°
2026-05-04 03:51 32.80443 -117.01095 5010 ft 237 kts 106°
2026-05-04 03:52 32.80006 -116.99207 5011 ft 237 kts 106°
2026-05-04 03:52 32.79581 -116.97330 5007 ft 230 kts 106°
2026-05-04 03:52 32.79181 -116.95558 4988 ft 214 kts 105°
2026-05-04 03:52 32.78797 -116.93882 4689 ft 212 kts 106°
2026-05-04 03:53 32.78414 -116.92192 4320 ft 211 kts 106°
2026-05-04 03:53 32.78037 -116.90523 4071 ft 204 kts 105°
2026-05-04 03:53 32.77684 -116.88954 4004 ft 189 kts 107°
2026-05-04 03:53 32.76992 -116.87744 3979 ft 173 kts 153°
2026-05-04 03:54 32.75882 -116.87647 3981 ft 162 kts 204°
2026-05-04 03:54 32.74937 -116.88406 3992 ft 170 kts 220°
2026-05-04 03:54 32.73945 -116.89310 4003 ft 187 kts 221°
2026-05-04 03:54 32.72978 -116.90407 4021 ft 197 kts 233°
2026-05-04 03:55 32.72243 -116.91802 3983 ft 200 kts 244°
2026-05-04 03:55 32.71711 -116.93280 3999 ft 191 kts 251°
2026-05-04 03:55 32.71337 -116.94770 3968 ft 185 kts 257°
2026-05-04 03:55 32.71107 -116.96259 3951 ft 182 kts 262°
2026-05-04 03:56 32.70948 -116.97750 3901 ft 181 kts 263°
2026-05-04 03:56 32.70831 -116.99216 3931 ft 176 kts 266°
2026-05-04 03:56 32.70705 -117.00658 3918 ft 175 kts 265°
2026-05-04 03:56 32.70586 -117.02116 3817 ft 179 kts 265°
2026-05-04 03:57 32.70446 -117.03615 3635 ft 185 kts 267°
2026-05-04 03:57 32.70448 -117.05159 3462 ft 188 kts 272°
2026-05-04 03:57 32.70628 -117.06735 3149 ft 197 kts 279°
2026-05-04 03:57 32.70868 -117.08381 2721 ft 204 kts 280°
2026-05-04 03:58 32.71383 -117.10835 1811 ft 124 kts 285°
2026-05-04 03:58 32.71616 -117.11769 1483 ft 112 kts 285°
2026-05-04 03:58 32.71835 -117.12611 1230 ft 103 kts 285°
2026-05-04 03:59 32.72028 -117.13402 1033 ft 98 kts 284°
2026-05-04 03:59 32.72212 -117.14178 895 ft 99 kts 283°
2026-05-04 03:59 32.72389 -117.14992 748 ft 103 kts 286°
2026-05-04 03:59 32.72596 -117.15822 546 ft 105 kts 284°
2026-05-04 04:00 32.72797 -117.16662 336 ft 105 kts 283°
2026-05-04 04:00 32.72994 -117.17484 127 ft 101 kts 284°
2026-05-04 04:00 32.73179 -117.18236 20 ft 84 kts 283°
2026-05-04 04:00 32.73286 -117.18679 18 ft 25 kts 287°
2026-05-04 04:01 32.73348 -117.18810 16 ft 16 kts 335°
2026-05-04 04:01 32.73420 -117.18764 15 ft 13 kts 90°
2026-05-04 04:01 32.73395 -117.18652 16 ft 15 kts 106°
2026-05-04 04:01 32.73362 -117.18518 19 ft 19 kts 105°
2026-05-04 04:02 32.73323 -117.18360 18 ft 21 kts 106°
2026-05-04 04:02 32.73282 -117.18188 17 ft 22 kts 107°
2026-05-04 04:02 32.73243 -117.18027 16 ft 12 kts 99°
2026-05-04 04:02 32.73299 -117.17971 18 ft 11 kts 16°
2026-05-04 04:03 32.73367 -117.17950 22 ft 9 kts 348°
2026-05-04 04:03 32.73389 -117.17976 21 ft 6 kts 193°
2026-05-04 04:03 32.73383 -117.17976 21 ft 0 kts 175°